{"data":{"norad_id":59302,"epoch":"2026-05-25T01:22:32.971584Z","epoch_age_seconds":66745,"freshness":"FRESH","line1":"1 59302U 24056G   26145.05732606 -.00000102  00000+0  58052-5 0  9991","line2":"2 59302  43.0008 159.4346 0001281 274.6319  85.4386 15.27574383122837","mean_motion":15.27574383,"eccentricity":0.0001281,"inclination_deg":43.0008,"raan_deg":159.4346,"arg_perigee_deg":274.6319,"mean_anomaly_deg":85.4386,"bstar":5.8052e-6,"rev_number":12283,"period_min":94.267095339213,"perigee_km":482.18699531643,"apogee_km":483.94483550336,"semimajor_km":6861.2029154099,"source":"CELESTRAK","updated_at":"2026-05-25T13:38:18.898673Z"}}